| time (UTC) | temp F | wind direction | speed knots | gust knots | rain 1hr in | rain 24hr in | rain mn in | humidity % | barometer mb |
| 20260502152059 | 41 | 28 | 0.0 | 3.5 | 0.01 | 0.37 | 0.11 | 96 | 1017.2 |
| 20260502151527 | 41 | 29 | 0.0 | 0.0 | 0.01 | 0.40 | 0.11 | 96 | 1017.2 |
| 20260502151100 | 40 | 29 | 0.0 | 1.7 | 0.01 | 0.40 | 0.11 | 96 | 1017.2 |
| 20260502150550 | 40 | 29 | 0.0 | 3.5 | 0.02 | 0.40 | 0.11 | 96 | 1017.1 |
| 20260502130546 | 37 | 26 | 0.0 | 2.6 | 0.02 | 0.39 | 0.07 | 96 | 1016.5 |
| 20260502123600 | 37 | 28 | 0.0 | 3.5 | 0.03 | 0.38 | 0.06 | 95 | 1016.6 |
| 20260502123031 | 37 | 28 | 0.9 | 3.5 | 0.03 | 0.38 | 0.06 | 95 | 1016.6 |
| 20260502122543 | 37 | 28 | 0.0 | 0.0 | 0.02 | 0.37 | 0.05 | 95 | 1016.6 |
| 20260502122055 | 37 | 28 | 0.0 | 2.6 | 0.02 | 0.37 | 0.05 | 95 | 1016.6 |
| 20260502121527 | 37 | 28 | 0.0 | 5.2 | 0.02 | 0.39 | 0.05 | 95 | 1016.5 |
| 20260502121039 | 38 | 28 | 2.6 | 5.2 | 0.03 | 0.39 | 0.05 | 95 | 1016.5 |
| 20260502120531 | 38 | 19 | 0.9 | 2.6 | 0.03 | 0.39 | 0.05 | 95 | 1016.4 |
| 20260502115539 | 37 | 19 | 0.0 | 0.0 | 0.02 | 0.38 | 0.04 | 95 | 1016.2 |
| 20260502115031 | 37 | 19 | 0.0 | 0.0 | 0.02 | 0.38 | 0.04 | 95 | 1016.2 |
| 20260502114033 | 37 | 19 | 0.0 | 0.0 | 0.01 | 0.37 | 0.03 | 95 | 1016.1 |
| 20260502113544 | 37 | 19 | 0.0 | 0.0 | 0.01 | 0.37 | 0.03 | 95 | 1016.1 |
| 20260502113036 | 37 | 19 | 0.0 | 0.0 | 0.01 | 0.37 | 0.03 | 95 | 1016.0 |
| 20260502112548 | 37 | 19 | 0.0 | 0.0 | 0.01 | 0.37 | 0.03 | 95 | 1016.0 |
| 20260502112039 | 37 | 19 | 0.0 | 0.0 | 0.01 | 0.37 | 0.03 | 95 | 1015.9 |
| 20260502111527 | 37 | 19 | 0.0 | 0.0 | 0.01 | 0.38 | 0.03 | 95 | 1015.9 |
| 20260502111059 | 38 | 19 | 0.0 | 0.0 | 0.00 | 0.37 | 0.02 | 95 | 1015.9 |
| 20260502110534 | 38 | 19 | 0.0 | 4.3 | 0.00 | 0.37 | 0.02 | 95 | 1016.0 |
| 20260502110046 | 38 | 19 | 0.0 | 4.3 | 0.00 | 0.37 | 0.02 | 95 | 1015.9 |
| 20260502105538 | 39 | 21 | 0.0 | 5.2 | 0.00 | 0.37 | 0.02 | 95 | 1015.8 |
| 20260502105030 | 39 | 13 | 1.7 | 4.3 | 0.00 | 0.37 | 0.02 | 95 | 1015.7 |
| 20260502104542 | 39 | 12 | 0.0 | 0.0 | 0.00 | 0.37 | 0.02 | 95 | 1015.5 |
| 20260502104034 | 39 | 12 | 0.0 | 0.0 | 0.00 | 0.37 | 0.02 | 95 | 1015.4 |
| 20260502103526 | 39 | 12 | 0.0 | 0.0 | 0.00 | 0.37 | 0.02 | 96 | 1015.3 |
| 20260502103039 | 39 | 12 | 0.0 | 0.0 | 0.00 | 0.37 | 0.02 | 96 | 1015.2 |
| 20260502102535 | 39 | 12 | 0.0 | 0.0 | 0.00 | 0.37 | 0.02 | 95 | 1015.1 |
| 20260502102107 | 39 | 12 | 0.0 | 0.0 | 0.00 | 0.37 | 0.02 | 95 | 1015.1 |
| 20260502101538 | 39 | 12 | 0.0 | 0.0 | 0.00 | 0.38 | 0.02 | 95 | 1015.0 |
| 20260502101030 | 39 | 12 | 0.0 | 0.0 | 0.00 | 0.38 | 0.02 | 95 | 1015.0 |
| 20260502100542 | 39 | 12 | 0.0 | 0.0 | 0.00 | 0.38 | 0.02 | 95 | 1015.1 |
| 20260502091036 | 39 | 9 | 0.0 | 0.0 | 0.01 | 0.39 | 0.02 | 95 | 1014.9 |
| 20260502090548 | 39 | 9 | 0.0 | 0.0 | 0.01 | 0.39 | 0.02 | 95 | 1014.9 |
| 20260502071036 | 39 | 5 | 0.0 | 0.0 | 0.00 | 0.38 | 0.01 | 94 | 1014.9 |
| 20260502070548 | 39 | 5 | 0.0 | 0.0 | 0.00 | 0.38 | 0.01 | 94 | 1014.9 |
| 20260502070039 | 39 | 5 | 0.0 | 0.0 | 0.00 | 0.38 | 0.01 | 94 | 1015.0 |
| 20260502065531 | 39 | 5 | 0.0 | 0.0 | 0.00 | 0.38 | 0.01 | 94 | 1014.9 |
| 20260502065043 | 39 | 5 | 0.0 | 4.3 | 0.00 | 0.38 | 0.01 | 94 | 1014.8 |
| 20260502064556 | 39 | 5 | 0.9 | 4.3 | 0.00 | 0.38 | 0.01 | 94 | 1014.8 |
| 20260502064107 | 39 | 5 | 0.0 | 0.0 | 0.00 | 0.38 | 0.01 | 94 | 1014.9 |
| 20260502063538 | 39 | 5 | 0.0 | 0.0 | 0.00 | 0.38 | 0.01 | 94 | 1015.0 |
| 20260502063034 | 39 | 5 | 0.0 | 0.0 | 0.00 | 0.38 | 0.01 | 94 | 1015.0 |
| 20260502062526 | 39 | 5 | 0.0 | 0.0 | 0.01 | 0.38 | 0.01 | 94 | 1015.1 |
| 20260502062040 | 39 | 5 | 0.0 | 0.0 | 0.01 | 0.38 | 0.01 | 94 | 1015.0 |
| 20260502061044 | 39 | 5 | 0.0 | 0.0 | 0.01 | 0.38 | 0.01 | 94 | 1015.2 |
| 20260502060536 | 39 | 5 | 0.0 | 0.0 | 0.01 | 0.38 | 0.01 | 94 | 1015.1 |
| 20260502060047 | 39 | 5 | 0.0 | 0.0 | 0.01 | 0.38 | 0.01 | 94 | 1015.2 |
| 20260502055559 | 40 | 5 | 0.0 | 0.0 | 0.01 | 0.38 | 0.01 | 94 | 1015.4 |
| 20260502055030 | 40 | 5 | 0.0 | 4.3 | 0.01 | 0.38 | 0.01 | 94 | 1015.4 |
| 20260502054542 | 40 | 5 | 0.0 | 4.3 | 0.01 | 0.38 | 0.01 | 94 | 1015.5 |
| 20260502054038 | 40 | 5 | 0.0 | 0.0 | 0.01 | 0.38 | 0.01 | 94 | 1015.6 |
| 20260502053530 | 40 | 5 | 0.0 | 0.0 | 0.01 | 0.38 | 0.01 | 94 | 1015.6 |
| 20260502053043 | 40 | 5 | 0.0 | 0.0 | 0.01 | 0.38 | 0.01 | 94 | 1015.6 |
| 20260502052535 | 40 | 5 | 0.0 | 0.0 | 0.00 | 0.37 | 0.00 | 94 | 1015.6 |
| 20260502052027 | 41 | 5 | 0.0 | 0.0 | 0.00 | 0.37 | 0.00 | 94 | 1015.7 |
| 20260502051538 | 41 | 5 | 0.0 | 0.0 | 0.00 | 0.37 | 0.00 | 94 | 1015.7 |
| 20260502051030 | 40 | 5 | 0.0 | 0.0 | 0.00 | 0.37 | 0.00 | 94 | 1015.6 |
| 20260502050540 | 40 | 5 | 0.0 | 0.0 | 0.01 | 0.37 | 0.00 | 94 | 1015.6 |
| 20260502050035 | 40 | 5 | 0.0 | 1.7 | 0.01 | 0.37 | 0.00 | 94 | 1015.5 |
| 20260502045546 | 40 | 5 | 0.0 | 1.7 | 0.01 | 0.37 | 0.37 | 93 | 1015.5 |
| 20260502045037 | 40 | 355 | 0.0 | 0.0 | 0.01 | 0.37 | 0.37 | 93 | 1015.5 |
| 20260502044548 | 40 | 355 | 0.0 | 0.0 | 0.02 | 0.37 | 0.37 | 93 | 1015.5 |
| 20260502044040 | 40 | 351 | 0.0 | 0.0 | 0.02 | 0.37 | 0.37 | 93 | 1015.6 |
| 20260502043532 | 40 | 351 | 0.0 | 0.0 | 0.03 | 0.37 | 0.37 | 93 | 1015.7 |
| 20260502043044 | 41 | 351 | 0.0 | 0.0 | 0.03 | 0.37 | 0.37 | 93 | 1015.8 |
| 20260502042536 | 41 | 351 | 0.0 | 0.0 | 0.03 | 0.37 | 0.37 | 93 | 1015.8 |
| 20260502042027 | 41 | 351 | 0.0 | 0.0 | 0.04 | 0.37 | 0.37 | 93 | 1015.8 |
| 20260502041539 | 41 | 351 | 0.0 | 0.0 | 0.04 | 0.37 | 0.37 | 93 | 1015.8 |
| 20260502041035 | 41 | 351 | 0.0 | 0.0 | 0.04 | 0.37 | 0.37 | 93 | 1015.8 |
| 20260502040528 | 41 | 351 | 0.0 | 0.0 | 0.04 | 0.36 | 0.36 | 93 | 1015.9 |
| 20260502040041 | 41 | 351 | 0.0 | 0.0 | 0.04 | 0.36 | 0.36 | 93 | 1016.0 |
| 20260502035532 | 41 | 351 | 0.0 | 0.0 | 0.04 | 0.36 | 0.36 | 93 | 1015.8 |
| 20260502035043 | 41 | 351 | 0.0 | 0.0 | 0.04 | 0.36 | 0.36 | 92 | 1015.7 |
| 20260502034533 | 41 | 351 | 0.0 | 0.0 | 0.04 | 0.35 | 0.35 | 92 | 1015.7 |
| 20260502034105 | 41 | 351 | 0.0 | 0.0 | 0.04 | 0.35 | 0.35 | 92 | 1015.7 |
| 20260502033536 | 41 | 351 | 0.0 | 0.0 | 0.04 | 0.34 | 0.34 | 92 | 1015.7 |
| 20260502033027 | 41 | 351 | 0.0 | 0.0 | 0.04 | 0.34 | 0.34 | 91 | 1015.7 |
| 20260502032538 | 41 | 351 | 0.0 | 0.0 | 0.04 | 0.34 | 0.34 | 91 | 1015.6 |
| 20260502032034 | 41 | 351 | 0.0 | 0.0 | 0.03 | 0.33 | 0.33 | 91 | 1015.6 |
| 20260502031545 | 41 | 351 | 0.0 | 0.0 | 0.03 | 0.33 | 0.33 | 90 | 1015.6 |
| 20260502031035 | 41 | 351 | 0.0 | 0.0 | 0.03 | 0.33 | 0.33 | 90 | 1015.5 |
| 20260502030526 | 41 | 351 | 0.0 | 0.0 | 0.02 | 0.32 | 0.32 | 90 | 1015.5 |
| 20260502030039 | 42 | 351 | 0.0 | 0.0 | 0.02 | 0.32 | 0.32 | 90 | 1015.4 |
| 20260502025531 | 42 | 351 | 0.0 | 0.0 | 0.03 | 0.32 | 0.32 | 89 | 1015.4 |
| 20260502025101 | 42 | 351 | 0.0 | 0.0 | 0.03 | 0.32 | 0.32 | 89 | 1015.6 |
| 20260502024532 | 42 | 351 | 0.0 | 1.7 | 0.02 | 0.31 | 0.31 | 89 | 1015.6 |
| 20260502024042 | 43 | 351 | 0.0 | 4.3 | 0.03 | 0.31 | 0.31 | 89 | 1015.6 |
| 20260502023535 | 43 | 351 | 0.0 | 4.3 | 0.02 | 0.30 | 0.30 | 88 | 1015.6 |
| 20260502023031 | 43 | 350 | 0.9 | 4.3 | 0.02 | 0.30 | 0.30 | 87 | 1015.6 |
| 20260502022603 | 43 | 350 | 0.9 | 4.3 | 0.02 | 0.30 | 0.30 | 86 | 1015.5 |
| 20260502022034 | 43 | 226 | 0.0 | 8.7 | 0.02 | 0.30 | 0.30 | 86 | 1015.4 |
| 20260502021546 | 43 | 230 | 4.3 | 8.7 | 0.02 | 0.30 | 0.30 | 87 | 1015.4 |
| 20260502021058 | 43 | 263 | 3.5 | 5.2 | 0.02 | 0.30 | 0.30 | 89 | 1015.2 |
| 20260502020529 | 43 | 29 | 0.0 | 0.0 | 0.02 | 0.30 | 0.30 | 89 | 1015.1 |
| 20260502020041 | 43 | 29 | 0.0 | 0.0 | 0.02 | 0.30 | 0.30 | 89 | 1015.0 |
| 20260502015553 | 43 | 29 | 0.0 | 0.0 | 0.01 | 0.29 | 0.29 | 88 | 1015.0 |
| 20260502015043 | 43 | 29 | 0.0 | 0.0 | 0.01 | 0.29 | 0.29 | 88 | 1014.9 |
| 20260502014536 | 43 | 29 | 0.0 | 0.0 | 0.01 | 0.29 | 0.29 | 88 | 1014.8 |
| 20260502014032 | 43 | 29 | 0.0 | 0.0 | 0.00 | 0.28 | 0.28 | 88 | 1014.7 |
| 20260502013545 | 43 | 29 | 0.0 | 0.0 | 0.00 | 0.28 | 0.28 | 88 | 1014.7 |
| 20260502013037 | 43 | 29 | 0.0 | 0.0 | 0.00 | 0.28 | 0.28 | 87 | 1014.7 |
| 20260502012549 | 43 | 29 | 0.0 | 0.0 | 0.00 | 0.28 | 0.28 | 87 | 1014.7 |
| 20260502012041 | 43 | 29 | 0.0 | 0.0 | 0.00 | 0.28 | 0.28 | 87 | 1014.6 |
| 20260502011554 | 43 | 29 | 0.0 | 0.0 | 0.01 | 0.28 | 0.28 | 86 | 1014.5 |
| 20260502011045 | 43 | 29 | 0.0 | 0.0 | 0.01 | 0.28 | 0.28 | 86 | 1014.5 |
| 20260502010537 | 43 | 29 | 0.0 | 0.0 | 0.01 | 0.28 | 0.28 | 86 | 1014.5 |
| 20260502010029 | 43 | 29 | 0.0 | 0.0 | 0.01 | 0.28 | 0.28 | 85 | 1014.5 |
| 20260502005545 | 43 | 29 | 0.0 | 0.0 | 0.01 | 0.28 | 0.28 | 85 | 1014.6 |
| 20260502005037 | 43 | 29 | 0.0 | 0.0 | 0.01 | 0.28 | 0.28 | 84 | 1014.6 |
| 20260502004528 | 43 | 29 | 0.0 | 0.0 | 0.01 | 0.28 | 0.28 | 83 | 1014.6 |
| 20260502004041 | 43 | 29 | 0.0 | 0.0 | 0.01 | 0.28 | 0.28 | 83 | 1014.5 |
| 20260502003553 | 43 | 29 | 0.0 | 0.0 | 0.01 | 0.28 | 0.28 | 83 | 1014.4 |
| 20260502003104 | 44 | 29 | 0.0 | 0.0 | 0.01 | 0.28 | 0.28 | 83 | 1014.3 |
| 20260502002555 | 44 | 29 | 0.0 | 0.0 | 0.02 | 0.28 | 0.28 | 83 | 1014.1 |
| 20260502002027 | 44 | 29 | 0.0 | 0.0 | 0.02 | 0.28 | 0.28 | 83 | 1014.1 |
| 20260502001539 | 44 | 29 | 0.0 | 0.0 | 0.01 | 0.27 | 0.27 | 82 | 1014.1 |
| 20260502001031 | 44 | 29 | 0.0 | 0.0 | 0.01 | 0.27 | 0.27 | 82 | 1014.0 |
| 20260502000527 | 44 | 29 | 0.0 | 0.0 | 0.01 | 0.27 | 0.27 | 82 | 1014.0 |
| 20260502000101 | 44 | 29 | 0.0 | 0.0 | 0.01 | 0.27 | 0.27 | 82 | 1013.9 |
| 20260501235532 | 44 | 29 | 0.0 | 0.0 | 0.01 | 0.27 | 0.27 | 81 | 1013.9 |
| 20260501235104 | 45 | 29 | 0.0 | 0.0 | 0.01 | 0.27 | 0.27 | 81 | 1013.8 |
| 20260501234535 | 45 | 29 | 0.0 | 0.0 | 0.01 | 0.27 | 0.27 | 80 | 1013.8 |
| 20260501234027 | 45 | 29 | 0.0 | 0.0 | 0.01 | 0.27 | 0.27 | 80 | 1013.7 |
| 20260501233600 | 45 | 29 | 0.0 | 0.0 | 0.01 | 0.27 | 0.27 | 80 | 1013.8 |
| 20260501233031 | 45 | 29 | 0.0 | 0.0 | 0.01 | 0.27 | 0.27 | 80 | 1013.8 |
| 20260501232542 | 45 | 29 | 0.0 | 0.0 | 0.02 | 0.27 | 0.27 | 79 | 1013.8 |
| 20260501232034 | 45 | 29 | 0.0 | 0.0 | 0.01 | 0.26 | 0.26 | 79 | 1013.8 |
| 20260501231530 | 45 | 29 | 0.0 | 0.0 | 0.01 | 0.26 | 0.26 | 79 | 1013.8 |
| 20260501231042 | 45 | 29 | 0.0 | 0.0 | 0.01 | 0.26 | 0.26 | 79 | 1013.7 |
| 20260501230534 | 45 | 29 | 0.0 | 0.0 | 0.01 | 0.26 | 0.26 | 80 | 1013.7 |
| 20260501230046 | 45 | 30 | 0.0 | 0.0 | 0.01 | 0.26 | 0.26 | 80 | 1013.6 |
| 20260501225538 | 45 | 44 | 0.0 | 0.0 | 0.01 | 0.26 | 0.26 | 81 | 1013.7 |
| 20260501225030 | 45 | 44 | 0.0 | 0.0 | 0.01 | 0.26 | 0.26 | 81 | 1013.7 |
| 20260501224540 | 45 | 44 | 0.0 | 0.0 | 0.02 | 0.26 | 0.26 | 81 | 1013.6 |
| 20260501224032 | 45 | 44 | 0.0 | 0.0 | 0.02 | 0.26 | 0.26 | 80 | 1013.5 |
| 20260501223528 | 45 | 44 | 0.0 | 0.0 | 0.02 | 0.26 | 0.26 | 81 | 1013.6 |
| 20260501223041 | 45 | 44 | 0.0 | 0.0 | 0.02 | 0.26 | 0.26 | 81 | 1013.7 |
| 20260501222533 | 45 | 44 | 0.0 | 0.0 | 0.02 | 0.26 | 0.26 | 81 | 1013.7 |
| 20260501222104 | 45 | 44 | 0.0 | 0.0 | 0.01 | 0.25 | 0.25 | 81 | 1013.7 |
| 20260501221536 | 45 | 44 | 0.0 | 0.0 | 0.01 | 0.25 | 0.25 | 82 | 1013.7 |
| 20260501221027 | 45 | 44 | 0.0 | 0.0 | 0.01 | 0.25 | 0.25 | 83 | 1013.5 |
| 20260501220539 | 45 | 44 | 0.0 | 0.0 | 0.01 | 0.25 | 0.25 | 83 | 1013.6 |
| 20260501220031 | 45 | 44 | 0.0 | 0.0 | 0.01 | 0.25 | 0.25 | 83 | 1013.6 |
| 20260501215527 | 45 | 44 | 0.0 | 0.0 | 0.01 | 0.25 | 0.25 | 84 | 1013.6 |
| 20260501215039 | 45 | 44 | 0.0 | 0.0 | 0.02 | 0.25 | 0.25 | 84 | 1013.6 |
| 20260501214551 | 45 | 44 | 0.0 | 0.0 | 0.01 | 0.24 | 0.24 | 84 | 1013.5 |
| 20260501214102 | 45 | 44 | 0.0 | 1.7 | 0.01 | 0.24 | 0.24 | 83 | 1013.5 |
| 20260501213553 | 45 | 44 | 0.0 | 3.5 | 0.01 | 0.24 | 0.24 | 84 | 1013.5 |
| 20260501213044 | 45 | 44 | 0.0 | 3.5 | 0.01 | 0.24 | 0.24 | 85 | 1013.6 |
| 20260501212536 | 45 | 44 | 0.9 | 3.5 | 0.01 | 0.24 | 0.24 | 86 | 1013.5 |
| 20260501212029 | 45 | 44 | 0.0 | 3.5 | 0.01 | 0.24 | 0.24 | 87 | 1013.5 |
| 20260501211601 | 45 | 44 | 0.0 | 4.3 | 0.01 | 0.24 | 0.24 | 88 | 1013.4 |
| 20260501211032 | 45 | 42 | 0.9 | 4.3 | 0.02 | 0.24 | 0.24 | 88 | 1013.3 |
| 20260501210542 | 44 | 42 | 0.0 | 3.5 | 0.02 | 0.24 | 0.24 | 88 | 1013.2 |
| 20260501210038 | 45 | 42 | 0.0 | 5.2 | 0.02 | 0.24 | 0.24 | 90 | 1013.1 |
| 20260501205530 | 45 | 42 | 2.6 | 5.2 | 0.02 | 0.24 | 0.24 | 91 | 1013.1 |
| 20260501205042 | 45 | 48 | 0.0 | 3.5 | 0.01 | 0.23 | 0.23 | 92 | 1013.1 |
| 20260501204535 | 44 | 48 | 0.0 | 4.3 | 0.01 | 0.23 | 0.23 | 93 | 1013.1 |
| 20260501204027 | 44 | 48 | 0.9 | 4.3 | 0.01 | 0.23 | 0.23 | 93 | 1013.1 |
| 20260501203538 | 44 | 48 | 0.0 | 2.6 | 0.01 | 0.23 | 0.23 | 94 | 1013.0 |
| 20260501203030 | 44 | 48 | 0.0 | 1.7 | 0.02 | 0.23 | 0.23 | 93 | 1012.9 |
| 20260501202541 | 44 | 48 | 0.0 | 5.2 | 0.02 | 0.23 | 0.23 | 94 | 1012.9 |
| 20260501202037 | 44 | 48 | 0.0 | 4.3 | 0.02 | 0.23 | 0.23 | 94 | 1012.9 |
| 20260501201529 | 43 | 48 | 0.0 | 2.6 | 0.02 | 0.23 | 0.23 | 94 | 1013.0 |
| 20260501201101 | 43 | 48 | 0.0 | 2.6 | 0.01 | 0.22 | 0.22 | 94 | 1013.0 |
| 20260501200532 | 44 | 48 | 0.0 | 2.6 | 0.02 | 0.22 | 0.22 | 94 | 1013.0 |
| 20260501200044 | 44 | 48 | 0.0 | 1.7 | 0.02 | 0.22 | 0.22 | 95 | 1013.0 |
| 20260501195536 | 43 | 48 | 0.0 | 2.6 | 0.02 | 0.22 | 0.22 | 95 | 1012.9 |
| 20260501195028 | 43 | 48 | 0.0 | 5.2 | 0.02 | 0.22 | 0.22 | 95 | 1012.9 |
| 20260501194541 | 43 | 47 | 3.5 | 5.2 | 0.02 | 0.22 | 0.22 | 95 | 1012.8 |
| 20260501194033 | 43 | 49 | 0.0 | 5.2 | 0.02 | 0.22 | 0.22 | 95 | 1012.9 |
| 20260501193549 | 43 | 49 | 0.0 | 5.2 | 0.03 | 0.22 | 0.22 | 95 | 1012.8 |
| 20260501193041 | 43 | 28 | 1.7 | 4.3 | 0.02 | 0.21 | 0.21 | 95 | 1012.8 |
| 20260501192554 | 43 | 47 | 1.7 | 8.7 | 0.02 | 0.21 | 0.21 | 95 | 1012.8 |
| 20260501192046 | 43 | 93 | 1.7 | 8.7 | 0.02 | 0.21 | 0.21 | 95 | 1012.8 |
| 20260501191538 | 43 | 31 | 1.7 | 6.1 | 0.03 | 0.21 | 0.21 | 95 | 1012.8 |
| 20260501191030 | 43 | 334 | 0.9 | 6.1 | 0.03 | 0.21 | 0.21 | 95 | 1012.7 |
| 20260501190542 | 43 | 5 | 1.7 | 6.1 | 0.02 | 0.20 | 0.20 | 95 | 1012.6 |
| 20260501190037 | 44 | 17 | 0.9 | 7.8 | 0.02 | 0.20 | 0.20 | 96 | 1012.7 |
| 20260501185529 | 44 | 37 | 0.9 | 7.8 | 0.02 | 0.20 | 0.20 | 96 | 1012.7 |
| 20260501185044 | 44 | 30 | 0.0 | 7.8 | 0.03 | 0.20 | 0.20 | 96 | 1012.6 |
| 20260501184536 | 44 | 65 | 0.9 | 7.0 | 0.03 | 0.20 | 0.20 | 95 | 1012.6 |
| 20260501184028 | 43 | 30 | 2.6 | 9.6 | 0.03 | 0.20 | 0.20 | 95 | 1012.5 |
| 20260501183539 | 43 | 32 | 2.6 | 10.4 | 0.03 | 0.19 | 0.19 | 96 | 1012.4 |
| 20260501183031 | 43 | 22 | 4.3 | 10.4 | 0.03 | 0.19 | 0.19 | 95 | 1012.4 |
| 20260501182543 | 43 | 34 | 0.9 | 5.2 | 0.03 | 0.19 | 0.19 | 96 | 1012.4 |
| 20260501182035 | 43 | 30 | 0.9 | 4.3 | 0.03 | 0.19 | 0.19 | 96 | 1012.3 |
| 20260501181527 | 43 | 30 | 0.0 | 3.5 | 0.02 | 0.18 | 0.18 | 95 | 1012.2 |
| 20260501181100 | 43 | 30 | 0.0 | 3.5 | 0.02 | 0.18 | 0.18 | 95 | 1012.2 |
| 20260501180534 | 43 | 30 | 0.0 | 7.8 | 0.02 | 0.18 | 0.18 | 95 | 1012.2 |
| 20260501180027 | 43 | 30 | 0.0 | 7.8 | 0.02 | 0.18 | 0.18 | 95 | 1012.2 |
| 20260501175600 | 43 | 27 | 0.0 | 3.5 | 0.03 | 0.18 | 0.18 | 95 | 1012.1 |
| 20260501175031 | 43 | 27 | 0.9 | 3.5 | 0.02 | 0.17 | 0.17 | 95 | 1012.1 |
| 20260501174543 | 43 | 26 | 0.0 | 3.5 | 0.02 | 0.17 | 0.17 | 95 | 1012.1 |
| 20260501174035 | 43 | 26 | 0.0 | 5.2 | 0.02 | 0.17 | 0.17 | 95 | 1012.1 |
| 20260501173527 | 43 | 27 | 0.9 | 6.1 | 0.01 | 0.16 | 0.16 | 95 | 1011.9 |
| 20260501173059 | 43 | 26 | 2.6 | 6.1 | 0.01 | 0.16 | 0.16 | 95 | 1011.8 |
| 20260501172550 | 43 | 30 | 1.7 | 5.2 | 0.02 | 0.16 | 0.16 | 95 | 1011.7 |
| 20260501172040 | 43 | 33 | 0.0 | 2.6 | 0.02 | 0.16 | 0.16 | 95 | 1011.8 |
| 20260501171536 | 43 | 33 | 0.0 | 2.6 | 0.02 | 0.16 | 0.16 | 95 | 1011.9 |
| 20260501171047 | 43 | 33 | 0.0 | 0.0 | 0.03 | 0.16 | 0.16 | 95 | 1012.0 |
| 20260501170539 | 43 | 33 | 0.0 | 0.0 | 0.03 | 0.16 | 0.16 | 95 | 1012.1 |
| 20260501170051 | 43 | 33 | 0.0 | 0.0 | 0.03 | 0.16 | 0.16 | 95 | 1011.9 |
| 20260501165542 | 43 | 33 | 0.0 | 0.0 | 0.02 | 0.15 | 0.15 | 95 | 1011.8 |
| 20260501165033 | 43 | 33 | 0.0 | 0.0 | 0.02 | 0.15 | 0.15 | 95 | 1011.7 |
| 20260501164605 | 43 | 33 | 0.0 | 0.0 | 0.03 | 0.15 | 0.15 | 95 | 1011.8 |
| 20260501164035 | 43 | 33 | 0.0 | 5.2 | 0.03 | 0.15 | 0.15 | 95 | 1011.9 |
| 20260501163527 | 44 | 33 | 2.6 | 5.2 | 0.03 | 0.15 | 0.15 | 95 | 1011.9 |
| 20260501163039 | 44 | 36 | 0.0 | 2.6 | 0.04 | 0.15 | 0.15 | 95 | 1011.8 |
| 20260501162535 | 44 | 39 | 0.0 | 2.6 | 0.03 | 0.14 | 0.14 | 95 | 1011.7 |
| 20260501162047 | 44 | 39 | 0.0 | 5.2 | 0.03 | 0.14 | 0.14 | 95 | 1011.8 |
| 20260501161539 | 44 | 38 | 0.0 | 5.2 | 0.03 | 0.15 | 0.14 | 95 | 1012.0 |
| 20260501161029 | 44 | 38 | 0.0 | 4.3 | 0.02 | 0.14 | 0.13 | 95 | 1011.8 |
| 20260501160541 | 44 | 40 | 0.9 | 5.2 | 0.02 | 0.14 | 0.13 | 95 | 1011.7 |
| 20260501160032 | 44 | 40 | 0.9 | 5.2 | 0.03 | 0.14 | 0.13 | 95 | 1011.8 |
| 20260501155604 | 43 | 41 | 0.0 | 0.9 | 0.03 | 0.14 | 0.13 | 95 | 1011.8 |
| 20260501155035 | 43 | 41 | 0.0 | 0.0 | 0.03 | 0.14 | 0.13 | 95 | 1011.8 |